Location: La Fredeussais
(48.1780°N, 1.3980°W)
Time: 04:06:53
(UTC+00:00)

Cosmos 1633 Rocket - Pass Details

Date: 09 May 2021
Orbit: 608 x 622 km, 82.5° (Epoch: 13 June)

Event Time Altitude Azimuth Distance (km) Brightness Sun altitude
Rises 20:00:24 0° 0° (N) 2,898 7.0 -5.1°
Reaches altitude 10° 20:02:59 10° 14° (NNE) 1,990 5.9 -5.4°
Maximum altitude 20:06:37 25° 70° (ENE) 1,264 4.4 -5.9°
Drops below altitude 10° 20:10:15 10° 126° (SE) 1,984 5.0 -6.4°
Enters shadow 20:10:44 - 129° (SE) 2,143 5.1 -6.5°
